| time (UTC) | temp F | wind direction | speed knots | gust knots | rain 1hr in | rain 24hr in | rain mn in | humidity % | barometer mb |
| 20260504020557 | 69 | 0 | 0.0 | 2.6 | 0.00 | 0.00 | 0.00 | 55 | 1015.3 |
| 20260504020105 | 69 | 61 | 0.0 | 1.7 | 0.00 | 0.00 | 0.00 | 54 | 1015.3 |
| 20260504015556 | 69 | 0 | 0.0 | 2.6 | 0.00 | 0.00 | 0.00 | 54 | 1015.3 |
| 20260504015055 | 70 | 227 | 0.0 | 2.6 | 0.00 | 0.00 | 0.00 | 53 | 1015.3 |
| 20260504014604 | 70 | 0 | 0.0 | 3.5 | 0.00 | 0.00 | 0.00 | 53 | 1015.2 |
| 20260504014055 | 70 | 0 | 0.0 | 3.5 | 0.00 | 0.00 | 0.00 | 52 | 1015.2 |
| 20260504013555 | 70 | 0 | 0.0 | 3.5 | 0.00 | 0.00 | 0.00 | 52 | 1015.2 |
| 20260504013057 | 71 | 0 | 0.0 | 2.6 | 0.00 | 0.00 | 0.00 | 51 | 1015.2 |
| 20260504012555 | 71 | 50 | 0.0 | 5.2 | 0.00 | 0.00 | 0.00 | 50 | 1015.1 |
| 20260504012055 | 71 | 0 | 0.0 | 5.2 | 0.00 | 0.00 | 0.00 | 50 | 1015.0 |
| 20260504011553 | 72 | 45 | 0.9 | 3.5 | 0.00 | 0.00 | 0.00 | 50 | 1015.0 |
| 20260504011054 | 72 | 0 | 0.0 | 3.5 | 0.00 | 0.00 | 0.00 | 50 | 1014.9 |
| 20260504010556 | 72 | 63 | 0.9 | 3.5 | 0.00 | 0.00 | 0.00 | 48 | 1015.0 |
| 20260504010101 | 72 | 71 | 0.9 | 3.5 | 0.00 | 0.00 | 0.00 | 49 | 1014.9 |
| 20260504005556 | 73 | 0 | 0.0 | 3.5 | 0.00 | 0.00 | 0.00 | 47 | 1014.9 |
| 20260504005055 | 73 | 0 | 0.0 | 2.6 | 0.00 | 0.00 | 0.00 | 47 | 1014.9 |
| 20260504004553 | 73 | 56 | 0.0 | 2.6 | 0.00 | 0.00 | 0.00 | 47 | 1015.0 |
| 20260504004055 | 73 | 0 | 0.0 | 4.3 | 0.00 | 0.00 | 0.00 | 46 | 1014.9 |
| 20260504003555 | 74 | 0 | 0.0 | 4.3 | 0.00 | 0.00 | 0.00 | 46 | 1015.0 |
| 20260504003054 | 74 | 0 | 0.0 | 1.7 | 0.00 | 0.00 | 0.00 | 45 | 1015.1 |
| 20260504002555 | 74 | 0 | 0.0 | 1.7 | 0.00 | 0.00 | 0.00 | 44 | 1015.2 |
| 20260504002055 | 74 | 0 | 0.0 | 1.7 | 0.00 | 0.00 | 0.00 | 43 | 1015.1 |
| 20260504001600 | 75 | 40 | 0.0 | 1.7 | 0.00 | 0.00 | 0.00 | 41 | 1015.2 |
| 20260504001055 | 75 | 0 | 0.0 | 2.6 | 0.00 | 0.00 | 0.00 | 40 | 1015.1 |
| 20260504000555 | 76 | 243 | 0.0 | 6.1 | 0.00 | 0.00 | 0.00 | 39 | 1015.1 |
| 20260504000100 | 76 | 0 | 0.0 | 6.1 | 0.00 | 0.00 | 0.00 | 39 | 1015.4 |
| 20260503235555 | 76 | 185 | 0.9 | 6.1 | 0.00 | 0.00 | 0.00 | 38 | 1015.5 |
| 20260503235055 | 76 | 0 | 0.0 | 2.6 | 0.00 | 0.00 | 0.00 | 38 | 1015.5 |
| 20260503234555 | 76 | 0 | 0.0 | 6.1 | 0.00 | 0.00 | 0.00 | 37 | 1015.5 |
| 20260503234055 | 77 | 191 | 0.9 | 6.1 | 0.00 | 0.00 | 0.00 | 36 | 1015.6 |
| 20260503233558 | 77 | 130 | 0.9 | 6.1 | 0.00 | 0.00 | 0.00 | 37 | 1015.5 |
| 20260503233055 | 78 | 37 | 0.9 | 2.6 | 0.00 | 0.00 | 0.00 | 36 | 1015.3 |
| 20260503232557 | 78 | 314 | 0.9 | 5.2 | 0.00 | 0.00 | 0.00 | 37 | 1015.2 |
| 20260503232054 | 78 | 0 | 0.0 | 5.2 | 0.00 | 0.00 | 0.00 | 36 | 1015.2 |
| 20260503231558 | 79 | 203 | 0.9 | 4.3 | 0.00 | 0.00 | 0.00 | 35 | 1015.2 |
| 20260503231056 | 79 | 204 | 0.9 | 4.3 | 0.00 | 0.00 | 0.00 | 36 | 1015.4 |
| 20260503230556 | 79 | 121 | 0.0 | 3.5 | 0.00 | 0.00 | 0.00 | 36 | 1015.4 |
| 20260503230113 | 79 | 49 | 0.0 | 3.5 | 0.00 | 0.00 | 0.00 | 34 | 1015.5 |
| 20260503225555 | 79 | 0 | 0.0 | 8.7 | 0.00 | 0.00 | 0.00 | 34 | 1015.6 |
| 20260503225055 | 79 | 0 | 0.9 | 8.7 | 0.00 | 0.00 | 0.00 | 36 | 1015.6 |
| 20260503224554 | 79 | 87 | 0.9 | 4.3 | 0.00 | 0.00 | 0.00 | 35 | 1015.6 |
| 20260503224055 | 79 | 347 | 0.9 | 7.0 | 0.00 | 0.00 | 0.00 | 36 | 1015.6 |
| 20260503223555 | 79 | 209 | 0.9 | 7.0 | 0.00 | 0.00 | 0.00 | 36 | 1015.8 |
| 20260503223109 | 80 | 217 | 1.7 | 6.1 | 0.00 | 0.00 | 0.00 | 36 | 1015.9 |
| 20260503222554 | 80 | 67 | 0.9 | 6.1 | 0.00 | 0.00 | 0.00 | 36 | 1015.8 |
| 20260503222054 | 80 | 178 | 1.7 | 6.1 | 0.00 | 0.00 | 0.00 | 35 | 1015.8 |
| 20260503221555 | 80 | 265 | 0.9 | 4.3 | 0.00 | 0.00 | 0.00 | 36 | 1015.8 |
| 20260503221055 | 81 | 50 | 0.9 | 4.3 | 0.00 | 0.00 | 0.00 | 34 | 1015.9 |
| 20260503220555 | 81 | 0 | 0.9 | 3.5 | 0.00 | 0.00 | 0.00 | 35 | 1015.9 |
| 20260503220057 | 81 | 65 | 0.9 | 6.1 | 0.00 | 0.00 | 0.00 | 36 | 1016.0 |
| 20260503215554 | 81 | 0 | 0.0 | 7.0 | 0.00 | 0.00 | 0.00 | 36 | 1016.1 |
| 20260503215054 | 82 | 158 | 0.9 | 7.0 | 0.00 | 0.00 | 0.00 | 37 | 1016.2 |
| 20260503214559 | 82 | 105 | 0.9 | 5.2 | 0.00 | 0.00 | 0.00 | 34 | 1016.3 |
| 20260503214055 | 82 | 352 | 0.9 | 4.3 | 0.00 | 0.00 | 0.00 | 33 | 1016.3 |
| 20260503213555 | 82 | 36 | 0.9 | 7.0 | 0.00 | 0.00 | 0.00 | 33 | 1016.4 |
| 20260503213056 | 82 | 63 | 0.9 | 7.0 | 0.00 | 0.00 | 0.00 | 36 | 1016.5 |
| 20260503212555 | 82 | 199 | 0.9 | 7.0 | 0.00 | 0.00 | 0.00 | 34 | 1016.6 |
| 20260503212054 | 82 | 53 | 0.9 | 5.2 | 0.00 | 0.00 | 0.00 | 34 | 1016.7 |
| 20260503211554 | 82 | 28 | 1.7 | 6.1 | 0.00 | 0.00 | 0.00 | 35 | 1017.0 |
| 20260503211055 | 82 | 40 | 0.9 | 6.1 | 0.00 | 0.00 | 0.00 | 34 | 1017.0 |
| 20260503210556 | 83 | 229 | 0.9 | 6.1 | 0.00 | 0.00 | 0.00 | 37 | 1017.0 |
| 20260503210056 | 83 | 75 | 0.9 | 6.1 | 0.00 | 0.00 | 0.00 | 34 | 1017.1 |
| 20260503205555 | 83 | 16 | 1.7 | 6.1 | 0.00 | 0.00 | 0.00 | 38 | 1017.2 |
| 20260503205055 | 83 | 199 | 0.9 | 3.5 | 0.00 | 0.00 | 0.00 | 35 | 1017.3 |
| 20260503204555 | 83 | 58 | 0.9 | 3.5 | 0.00 | 0.00 | 0.00 | 37 | 1017.2 |
| 20260503204054 | 83 | 360 | 0.9 | 3.5 | 0.00 | 0.00 | 0.00 | 41 | 1017.3 |
| 20260503203555 | 83 | 65 | 0.9 | 3.5 | 0.00 | 0.00 | 0.00 | 33 | 1017.5 |
| 20260503203053 | 83 | 136 | 0.9 | 5.2 | 0.00 | 0.00 | 0.00 | 35 | 1017.8 |
| 20260503202555 | 83 | 206 | 0.9 | 5.2 | 0.00 | 0.00 | 0.00 | 36 | 1017.7 |
| 20260503202054 | 83 | 65 | 0.9 | 4.3 | 0.00 | 0.00 | 0.00 | 38 | 1017.7 |
| 20260503201559 | 83 | 78 | 0.9 | 4.3 | 0.00 | 0.00 | 0.00 | 35 | 1017.8 |
| 20260503201055 | 84 | 78 | 0.9 | 4.3 | 0.00 | 0.00 | 0.00 | 38 | 1018.0 |
| 20260503200555 | 83 | 0 | 1.7 | 4.3 | 0.00 | 0.00 | 0.00 | 35 | 1017.9 |
| 20260503200057 | 83 | 256 | 0.9 | 6.1 | 0.00 | 0.00 | 0.00 | 36 | 1018.1 |
| 20260503195554 | 84 | 190 | 0.9 | 6.1 | 0.00 | 0.00 | 0.00 | 41 | 1018.1 |
| 20260503195056 | 84 | 142 | 0.9 | 5.2 | 0.00 | 0.00 | 0.00 | 34 | 1018.3 |
| 20260503194624 | 83 | 0 | 1.7 | 7.0 | 0.00 | 0.00 | 0.00 | 34 | 1018.3 |
| 20260503194055 | 83 | 118 | 0.9 | 7.0 | 0.00 | 0.00 | 0.00 | 37 | 1018.4 |
| 20260503193557 | 83 | 140 | 0.9 | 5.2 | 0.00 | 0.00 | 0.00 | 33 | 1018.4 |
| 20260503193056 | 84 | 0 | 0.0 | 5.2 | 0.00 | 0.00 | 0.00 | 39 | 1018.5 |
| 20260503192554 | 83 | 65 | 2.6 | 5.2 | 0.00 | 0.00 | 0.00 | 34 | 1018.5 |
| 20260503192057 | 83 | 132 | 0.0 | 7.0 | 0.00 | 0.00 | 0.00 | 40 | 1018.6 |
| 20260503191612 | 82 | 43 | 0.9 | 7.0 | 0.00 | 0.00 | 0.00 | 33 | 1018.7 |
| 20260503191054 | 83 | 0 | 0.9 | 6.1 | 0.00 | 0.00 | 0.00 | 33 | 1018.9 |
| 20260503190554 | 82 | 200 | 0.0 | 2.6 | 0.00 | 0.00 | 0.00 | 37 | 1019.0 |
| 20260503190100 | 83 | 45 | 0.9 | 2.6 | 0.00 | 0.00 | 0.00 | 37 | 1019.1 |
| 20260503185555 | 84 | 0 | 0.0 | 2.6 | 0.00 | 0.00 | 0.00 | 38 | 1019.3 |
| 20260503185059 | 84 | 17 | 0.0 | 3.5 | 0.00 | 0.00 | 0.00 | 40 | 1019.2 |
| 20260503184559 | 83 | 142 | 0.0 | 4.3 | 0.00 | 0.00 | 0.00 | 38 | 1019.3 |
| 20260503184055 | 83 | 36 | 0.9 | 4.3 | 0.00 | 0.00 | 0.00 | 38 | 1019.4 |
| 20260503183555 | 82 | 294 | 0.9 | 5.2 | 0.00 | 0.00 | 0.00 | 36 | 1019.4 |
| 20260503183105 | 82 | 26 | 0.0 | 5.2 | 0.00 | 0.00 | 0.00 | 39 | 1019.6 |
| 20260503182554 | 82 | 0 | 1.7 | 5.2 | 0.00 | 0.00 | 0.00 | 39 | 1019.7 |
| 20260503182055 | 83 | 120 | 0.9 | 4.3 | 0.00 | 0.00 | 0.00 | 35 | 1019.9 |
| 20260503181609 | 82 | 39 | 0.9 | 5.2 | 0.00 | 0.00 | 0.00 | 39 | 1019.9 |
| 20260503181057 | 82 | 77 | 1.7 | 5.2 | 0.00 | 0.00 | 0.00 | 38 | 1019.8 |
| 20260503180554 | 83 | 69 | 0.0 | 5.2 | 0.00 | 0.00 | 0.00 | 43 | 1020.0 |
| 20260503180058 | 82 | 75 | 0.9 | 7.0 | 0.00 | 0.00 | 0.00 | 41 | 1020.0 |
| 20260503175554 | 82 | 166 | 1.7 | 7.0 | 0.00 | 0.00 | 0.00 | 38 | 1020.1 |
| 20260503175056 | 82 | 38 | 0.9 | 3.5 | 0.00 | 0.00 | 0.00 | 39 | 1020.2 |
| 20260503174621 | 82 | 0 | 0.0 | 4.3 | 0.00 | 0.00 | 0.00 | 46 | 1020.3 |
| 20260503174057 | 81 | 69 | 0.0 | 5.2 | 0.00 | 0.00 | 0.00 | 43 | 1020.3 |
| 20260503173555 | 82 | 127 | 0.9 | 5.2 | 0.00 | 0.00 | 0.00 | 38 | 1020.5 |
| 20260503173105 | 82 | 111 | 0.9 | 2.6 | 0.00 | 0.00 | 0.00 | 38 | 1020.4 |
| 20260503172554 | 82 | 148 | 0.0 | 2.6 | 0.00 | 0.00 | 0.00 | 45 | 1020.5 |
| 20260503172054 | 82 | 51 | 0.9 | 2.6 | 0.00 | 0.00 | 0.00 | 42 | 1020.9 |
| 20260503171554 | 82 | 53 | 0.0 | 3.5 | 0.00 | 0.00 | 0.00 | 43 | 1020.9 |
| 20260503171056 | 81 | 154 | 0.9 | 3.5 | 0.00 | 0.00 | 0.00 | 42 | 1020.9 |
| 20260503170556 | 82 | 196 | 0.9 | 3.5 | 0.00 | 0.00 | 0.00 | 44 | 1021.0 |
| 20260503170105 | 81 | 0 | 0.0 | 3.5 | 0.00 | 0.00 | 0.00 | 45 | 1021.1 |
| 20260503150556 | 73 | 0 | 0.0 | 2.6 | 0.00 | 0.00 | 0.00 | 56 | 1021.9 |
| 20260503131055 | 57 | 0 | 0.0 | 0.0 | 0.00 | 0.00 | 0.00 | 85 | 1021.4 |
| 20260503130555 | 56 | 0 | 0.0 | 0.0 | 0.00 | 0.00 | 0.00 | 87 | 1021.4 |
| 20260503130104 | 55 | 0 | 0.0 | 0.0 | 0.00 | 0.00 | 0.00 | 88 | 1021.5 |
| 20260503120128 | 48 | 0 | 0.0 | 0.0 | 0.00 | 0.00 | 0.00 | 86 | 1020.6 |
| 20260503110554 | 49 | 0 | 0.0 | 0.0 | 0.00 | 0.00 | 0.00 | 85 | 1020.3 |
| 20260503081600 | 52 | 0 | 0.0 | 0.0 | 0.00 | 0.00 | 0.00 | 84 | 1019.9 |
| 20260503081056 | 52 | 0 | 0.0 | 0.0 | 0.00 | 0.00 | 0.00 | 84 | 1019.9 |
| 20260503080556 | 52 | 0 | 0.0 | 0.0 | 0.00 | 0.00 | 0.00 | 84 | 1019.9 |
| 20260503072558 | 53 | 0 | 0.0 | 0.0 | 0.00 | 0.00 | 0.00 | 83 | 1020.3 |
| 20260503072056 | 53 | 0 | 0.0 | 0.0 | 0.00 | 0.00 | 0.00 | 83 | 1020.3 |
| 20260503071557 | 53 | 0 | 0.0 | 0.0 | 0.00 | 0.00 | 0.00 | 83 | 1020.4 |
| 20260503071056 | 53 | 0 | 0.0 | 0.0 | 0.00 | 0.00 | 0.00 | 83 | 1020.5 |
| 20260503070556 | 53 | 0 | 0.0 | 0.0 | 0.00 | 0.00 | 0.00 | 82 | 1020.4 |
| 20260503055056 | 56 | 0 | 0.0 | 0.0 | 0.00 | 0.00 | 0.00 | 79 | 1020.3 |
| 20260503054559 | 56 | 0 | 0.0 | 0.0 | 0.00 | 0.00 | 0.00 | 80 | 1020.5 |
| 20260503054056 | 56 | 0 | 0.0 | 0.0 | 0.00 | 0.00 | 0.00 | 80 | 1020.3 |
| 20260503053555 | 56 | 0 | 0.0 | 0.0 | 0.00 | 0.00 | 0.00 | 80 | 1020.3 |
| 20260503053053 | 56 | 0 | 0.0 | 0.0 | 0.00 | 0.00 | 0.00 | 80 | 1020.3 |
| 20260503052556 | 56 | 0 | 0.0 | 0.0 | 0.00 | 0.00 | 0.00 | 80 | 1020.3 |
| 20260503052055 | 56 | 0 | 0.0 | 0.0 | 0.00 | 0.00 | 0.00 | 80 | 1020.2 |
| 20260503051555 | 56 | 0 | 0.0 | 0.0 | 0.00 | 0.00 | 0.00 | 80 | 1020.2 |
| 20260503051055 | 56 | 0 | 0.0 | 0.0 | 0.00 | 0.00 | 0.00 | 79 | 1020.3 |
| 20260503050557 | 56 | 0 | 0.0 | 0.0 | 0.00 | 0.00 | 0.00 | 79 | 1020.2 |
| 20260503050058 | 56 | 0 | 0.0 | 0.0 | 0.00 | 0.00 | 0.00 | 78 | 1020.1 |
| 20260503045556 | 56 | 0 | 0.0 | 0.0 | 0.00 | 0.00 | 0.00 | 77 | 1020.1 |
| 20260503045056 | 57 | 0 | 0.0 | 0.0 | 0.00 | 0.00 | 0.00 | 76 | 1020.0 |
| 20260503044613 | 57 | 0 | 0.0 | 0.0 | 0.00 | 0.00 | 0.00 | 76 | 1020.1 |
| 20260503044121 | 57 | 0 | 0.0 | 0.0 | 0.00 | 0.00 | 0.00 | 76 | 1020.0 |
| 20260503043556 | 57 | 0 | 0.0 | 0.0 | 0.00 | 0.00 | 0.00 | 76 | 1020.0 |
| 20260503043058 | 58 | 0 | 0.0 | 0.0 | 0.00 | 0.00 | 0.00 | 76 | 1020.0 |
| 20260503042552 | 58 | 0 | 0.0 | 0.0 | 0.00 | 0.00 | 0.00 | 75 | 1020.0 |
| 20260503042055 | 58 | 0 | 0.0 | 0.9 | 0.00 | 0.00 | 0.00 | 75 | 1020.2 |
| 20260503041611 | 58 | 0 | 0.0 | 0.9 | 0.00 | 0.00 | 0.00 | 75 | 1020.2 |
| 20260503041055 | 58 | 0 | 0.0 | 0.0 | 0.00 | 0.00 | 0.00 | 75 | 1020.2 |
| 20260503040555 | 58 | 0 | 0.0 | 0.0 | 0.00 | 0.00 | 0.00 | 76 | 1020.2 |
| 20260503040057 | 57 | 0 | 0.0 | 0.0 | 0.00 | 0.00 | 0.00 | 77 | 1020.2 |
| 20260503035600 | 58 | 0 | 0.0 | 0.0 | 0.00 | 0.00 | 0.00 | 76 | 1020.3 |
| 20260503035057 | 58 | 0 | 0.0 | 0.0 | 0.00 | 0.00 | 0.00 | 74 | 1020.3 |
| 20260503034555 | 58 | 0 | 0.0 | 0.0 | 0.00 | 0.00 | 0.00 | 73 | 1020.3 |
| 20260503034056 | 58 | 0 | 0.0 | 0.0 | 0.00 | 0.00 | 0.00 | 73 | 1020.1 |
| 20260503033555 | 58 | 0 | 0.0 | 0.0 | 0.00 | 0.00 | 0.00 | 73 | 1020.0 |
| 20260503033114 | 58 | 0 | 0.0 | 0.0 | 0.00 | 0.00 | 0.00 | 73 | 1020.1 |
| 20260503032555 | 58 | 0 | 0.0 | 0.0 | 0.00 | 0.00 | 0.00 | 73 | 1020.1 |
| 20260503032055 | 58 | 0 | 0.0 | 0.0 | 0.00 | 0.00 | 0.00 | 74 | 1019.9 |
| 20260503031553 | 57 | 0 | 0.0 | 0.0 | 0.00 | 0.00 | 0.00 | 76 | 1019.9 |
| 20260503031055 | 57 | 0 | 0.0 | 0.0 | 0.00 | 0.00 | 0.00 | 75 | 1019.9 |
| 20260503030554 | 57 | 0 | 0.0 | 0.0 | 0.00 | 0.00 | 0.00 | 76 | 1019.9 |
| 20260503030100 | 57 | 0 | 0.0 | 0.0 | 0.00 | 0.00 | 0.00 | 75 | 1019.8 |
| 20260503025555 | 58 | 0 | 0.0 | 0.0 | 0.00 | 0.00 | 0.00 | 74 | 1019.7 |
| 20260503025055 | 58 | 0 | 0.0 | 0.0 | 0.00 | 0.00 | 0.00 | 73 | 1019.5 |
| 20260503024602 | 58 | 0 | 0.0 | 0.0 | 0.00 | 0.00 | 0.00 | 75 | 1019.6 |
| 20260503024055 | 58 | 0 | 0.0 | 0.0 | 0.00 | 0.00 | 0.00 | 74 | 1019.6 |
| 20260503023556 | 58 | 0 | 0.0 | 0.0 | 0.00 | 0.00 | 0.00 | 74 | 1019.5 |
| 20260503023056 | 59 | 0 | 0.0 | 0.0 | 0.00 | 0.00 | 0.00 | 74 | 1019.5 |
| 20260503022555 | 59 | 0 | 0.0 | 0.0 | 0.00 | 0.00 | 0.00 | 75 | 1019.4 |
| 20260503022055 | 59 | 0 | 0.0 | 0.0 | 0.00 | 0.00 | 0.00 | 75 | 1019.5 |
| 20260503021609 | 59 | 0 | 0.0 | 0.0 | 0.00 | 0.00 | 0.00 | 75 | 1019.4 |
| 20260503021055 | 59 | 0 | 0.0 | 0.0 | 0.00 | 0.00 | 0.00 | 73 | 1019.2 |